www.pogodaiklimat.ru

Погода и климат >> Архив погоды >> Марокко >> Аль-Аруи


ПОГОДА в Аль-Аруи

  • Прогноз погоды в Аль-Аруи
  • Монитор погоды в Аль-Аруи

АРХИВ ПОГОДЫ в Аль-Аруи

Время (UTC), дата Ветер
(напр.,м/с)
 
Видим.   Явления Облачность Т
(С)
Тd
(С)
f
(%)
Тe
(С)
Тes
(С)
Комфортность P
(гПа)
Po
(гПа)
Тmin
(С)
Tmax
(С)
R
(мм)
R24
(мм)
S
(см)
03 10.06 ЮЗ 2-4
{4}
15 км ясно +13.6 +6.9 64 +13 +13 1016.8 995.3
06 10.06 СВ 2-4
{8}
15 км ясно +16.2 +6.6 53 +16 +17 1016.7 995.7 +11.7
09 10.06 З 11-15
{16}
15 км ясно +24.1 +2.9 25 +23 +23 комфорт 1016.4 995.7
12 10.06 СЗ 18-26
{19}
15 км ясно +26.2 +4.6 25 +25 +25 комфорт 1015.4 994.9
15 10.06 СЗ 15-22
{26}
15 км 3/0
[Ci sp]
+25.5 +7.6 32 +26 +26 жарко 1013.7 993.2
18 10.06 С 5-9
{26}
15 км ясно +24.3 +7.4 34 +25 +25 комфорт 1013.3 992.7 +27.7
21 10.06 СЗ 3-7
{12}
15 км ясно +20.2 +7.9 45 +22 +22 комфорт 1014.6 993.8
00 11.06 ЮЗ 3-4
{12}
15 км ясно +15.1 +7.2 59 +15 +15 1014.2 992.9
03 11.06 Ю 4-6
{10}
15 км ясно +12.5 +6.5 67 +11 +11 1012.7 991.2
06 11.06 Ю 3-3
{8}
15 км ясно +14.8 +6.9 59 +14 +15 1012.0 990.9 +11.7
09 11.06 З 5-13
{13}
15 км ясно +26.5 +4.3 24 +25 +32 комфорт 1011.0 990.6
12 11.06 СЗ 11-19
{20}
15 км ясно +28.9 +5.0 22 +27 +28 жарко 1009.8 989.6
15 11.06 СЗ 15-19
{20}
15 км ясно +28.2 +3.8 21 +27 +27 жарко 1008.6 988.4
18 11.06 СЗ 15-22
{22}
15 км ясно +24.5 +8.9 37 +25 +25 комфорт 1008.6 988.1 +29.2
21 11.06 Ю 4-4
{20}
15 км ясно +19.3 +7.7 47 +20 +20 1010.7 989.8
00 12.06 Ю 1-3
{6}
15 км ясно +16.2 +7.2 55 +17 +17 1010.8 989.7
03 12.06 В 5-3
{16}
15 км ясно +18.2 +11.3 64 +18 +18 1010.7 989.8
06 12.06 С 1-2
{2}
15 км ясно +16.4 +8.4 59 +17 +18 1011.8 990.7 +16.2
09 12.06 С 4-9
{8}
15 км ясно +22.1 +11.8 52 +24 +32 комфорт 1011.6 990.8
12 12.06 СВ 14-7
{20}
15 км 1/1 600 м
[Cu hum]
+23.2 +13.7 55 +27 +27 душно 1011.0 990.4
15 12.06 СВ 17 15 км 4/4 600 м
[Cu med, cong]
+22.8 +14.1 58 +26 +26 жарко 1010.0 989.6
18 12.06 СВ 11 15 км 4/4 600 м
[Cu med, cong]
+21.1 +14.3 65 +24 +24 комфорт 1009.8 989.3 +25.2
21 12.06 СВ 7 10 км 6/6 480 м
[Cu med, cong]
+19.5 +14.5 73 +21 +21 комфорт 1011.1 990.4
00 13.06 С 5 10 км 6/6 450 м
[Cu med, cong]
+18.9 +14.6 76 +20 +20 1010.6 989.9
03 13.06 С 3 10 км 6/6 480 м
[Cu med, cong]
+19.2 +14.7 75 +21 +21 комфорт 1009.7 989.0
06 13.06 С 7 10 км 9/9 480 м
[Cu med, cong]
+19.0 +16.1 83 +20 +20 1009.8 989.1 +16.5
09 13.06 СВ 8 6000 м 10/10 480 м
[Cu Sc]
+20.5 +15.1 71 +23 +23 комфорт 1009.8 989.2
12 13.06 СВ 13 8000 м 9/9 600 м
[Cu Sc]
+22.5 +14.6 61 +26 +26 жарко 1009.1 988.7
15 13.06 СВ 14 8000 м 8/8 600 м
[Cu Sc]
+23.2 +15.3 61 +27 +27 душно 1008.5 988.1
18 13.06 СВ 11 8000 м 5/5 600 м
[Cu Sc]
+21.6 +15.2 67 +25 +25 комфорт 1008.6 988.1 +25.3
21 13.06 Ю 6 6000 м гроза, ливневой дождь 8/4 600 м
[Cb cap Ac As]
+19.8 +15.9 78 +22 +22 комфорт 1013.4 992.7
00 14.06 ЮЗ 3 8000 м гроза без осадков 9/5 600 м
[Cb cap Ac As]
+18.3 +16.8 91 +19 +19 1013.4 992.6 1
03 14.06 СЗ 2 8000 м 6/5 600 м
[Cu Sc Ac As]
+18.1 +16.8 92 +19 +19 1012.5 991.7
06 14.06 СЗ 3 6000 м 9/9 500 м
[Cu Sc]
+18.2 +16.4 89 +19 +19 1014.9 994.0 +16.7 1
09 14.06 СЗ 3 8000 м 6/6 500 м
[Cu Sc]
+20.8 +14.0 65 +24 +28 комфорт 1016.2 995.5
12 14.06 СЗ 11 10 км 3/3 600 м
[Cu med, cong]
+23.2 +13.4 54 +26 +27 жарко 1016.5 996.0
15 14.06 СЗ 12-17
{18}
15 км ясно +22.3 +10.8 48 +24 +24 комфорт 1016.3 995.5
18 14.06 СЗ 13-17
{18}
15 км ясно +20.4 +9.3 49 +21 +21 комфорт 1016.4 995.5 +23.4 1
21 14.06 З 3-3
{18}
15 км ясно +17.7 +9.8 60 +18 +18 1018.1 997.0
00 15.06 З 3-3
{4}
15 км ясно +14.7 +10.5 76 +14 +14 1018.6 997.2
03 15.06 ЮЗ 3-4
{4}
15 км ясно +13.5 +9.6 77 +12 +12 1018.5 997.1
06 15.06 ЮЗ 3-4
{6}
15 км ясно +13.5 +10.1 80 +12 +13 1018.9 997.6 +12.0
09 15.06 СЗ 4-7
{6}
15 км ясно +20.5 +10.0 51 +22 +30 комфорт 1018.9 997.9
12 15.06 СВ 4-9
{8}
15 км ясно +26.1 +8.6 33 +26 +41 жарко 1017.5 997.0
15 15.06 СВ 10-14
{14}
15 км ясно +26.4 +8.9 33 +27 +27 жарко 1016.2 995.7
18 15.06 СВ 8-12
{14}
15 км ясно +23.9 +7.9 36 +24 +25 комфорт 1016.1 995.4 +27.6
21 15.06 В 2-4
{8}
15 км ясно +19.5 +8.8 50 +21 +21 комфорт 1017.4 996.4
00 16.06 штиль 0-2
{2}
15 км ясно +15.7 +8.9 64 +16 +16 1017.6 996.1
03 16.06 З 2-6
{6}
15 км ясно +12.7 +8.6 76 +12 +12 1016.6 995.1
06 16.06 ЮЗ 2-2
{6}
15 км ясно +14.4 +8.6 68 +14 +15 1016.8 995.7 +12.3
09 16.06 В 7-10
{10}
15 км 6/0
[Ci]
+22.9 +9.0 41 +24 +27 комфорт 1016.7 996.0
12 16.06 СВ 12-18
{18}
15 км 3/0
[Ci sp]
+24.3 +10.6 42 +25 +25 комфорт 1017.1 996.4
15 16.06 СВ 14-17
{22}
15 км 3/0
[Ci sp]
+24.0 +10.3 42 +25 +25 комфорт 1016.3 995.7
18 16.06 СВ 11-14
{22}
15 км ясно +22.0 +13.4 58 +25 +25 комфорт 1017.3 996.5 +25.7
21 16.06 СВ 5-6
{14}
15 км ясно +19.5 +14.3 72 +21 +21 комфорт 1018.8 997.8
00 17.06 Ю 3-3
{14}
15 км ясно +15.8 +13.1 84 +15 +15 1018.6 997.4

 

Местоположение метеостанции Аль-Аруи (Марокко): широта 34.98 долгота -3.02 высота над уровнем моря 177 м.

В архиве по умолчанию представлена погода в Аль-Аруи за последнюю неделю. Архивные данные за месяц целиком и за предыдущие месяцы, начиная с января 2011 года, Вы можете получить, выбрав интересующий диапазон дат из раскрывающегося списка и нажав кнопку "Ввод!".


*Определитесь, кто Вы:
робот инопланетянин человек

Внимание! Время в таблицах - всемирное. Для получения местного времени необходимо прибавить поправку, которая равна 0 ч.

Смотрите также архив погоды в соседних городах и на ближайших метеорологических станциях:

Погода в Мелилье (Испания) (34 км)
Погода в Эль-Хосейме (Марокко) (79 км)
Погода в Уджде (Марокко) (102 км)
Погода в Газауэте (Алжир) (106 км)
Погода в Багнии (Алжир) (115 км)
Погода в Тазе (Марокко) (123 км)
Погода в Аэропорту Messali El Hadj (Алжир) (141 км)
Погода в Бени-Сафе (Алжир) (156 км)
Погода на Мысе Рокетас-де-Мар (Испания) (192 км)
Погода в Адре - клуб Наутико (Испания) (197 км)

Пояснения к столбцам:

Ветер - указаны скорость ветра в м/с - средняя за 10 мин, порывы в срок и между сроками (в фигурных скобках) и направление, откуда дует ветер: С - северный, СВ - северо-восточный, В - восточный, ЮВ - юго-восточный, Ю - южный, ЮЗ - юго-западный, З - западный, СЗ - северо-западный.
Видимость - горизонтальная дальность видимости в метрах или километрах. При видимости от 1 до 10 км при отсутствии осадков обычно наблюдается дымка, при ухудшении видимости до 1 км и менее - туман. В сухую погоду видимость может ухудшаться дымом, пылью или мглою.
Явления - указаны атмосферные явления, наблюдавшиеся в срок или в последний час перед сроком; фигурными скобками обозначены явления, наблюдавшиеся между сроками (за 1-3 часа до срока); квадратными скобками обозначены град или гололедные отложения с указанием их диаметра в мм.
Облачность - указаны через наклонную черту общая и нижняя облачность в баллах и высота нижней границы облаков в метрах; квадратными скобками обозначены формы облаков: Ci - перистые, Cs - перисто-слоистые, Cc - перисто-кучевые, Ac - высококучевые, As - высокослоистые, Sc - слоисто-кучевые, Ns - слоисто-дождевые, Cu - кучевые, Cb - кучево-дождевые. Подробнее классификацию облаков см. в Атласе облаков (PDF).
T - Температура воздуха - температура, измеренная на высоте 2 м над землей.
Td - Температура точки росы - температура, при понижении до которой содержащийся в воздухе водяной пар достигнет насыщения.
f - Относительная влажность воздуха - влажноcть воздуха, измеренная на высоте 2 м над землей.
Te - Эффективная температура - температура, которую ощущает одетый по сезону человек в тени. Характеристика душности погоды. При расчете учитывается влияние влажности воздуха и скорости ветра на теплоощущения человека.
Tes - Эффективная температура на солнце - температура, которую ощущает человек, с поправкой на солнечный нагрев. Характеристика знойности погоды. Зависит от высоты солнца над горизонтом, облачности и скорости ветра. Ночью, в пасмурную погоду, а также при ветре 12 м/с и более поправка равна нулю.
P - Атмосферное давление - приведенное к уровню моря атмосферное давление.
Po - Атмосферное давление - измеренное на уровне метеостанции атмосферное давление.
Tmin - Минимальная температура - минимум температуры воздуха на высоте 2 м над землей.
Tmax - Максимальная температура - максимум температуры воздуха на высоте 2 м над землей.
R - Количество осадков - Количество выпавших осадков за период времени, мм. При наведении курсора мыши на число - период времени, за который выпало указанное количество осадков.
R24 - Количество осадков - Количество выпавших осадков за 24 часа, мм.
S - Снежный покров - Высота снежного покрова, см. При наведении курсора мыши на число - состояние снежного покрова и степень покрытия местности в баллах.